sat.trackr.live / text

‹ back to catalog

JILIN-1 GAOFEN 03D47

NORAD 54692 · 2022-167L

PAYLOAD ACTIVE UNKNOWN

§ Identity

Operator
Country
PRC
Launch date
2022-12-09
Launch site
SEAL
Launch vehicle
Mass (kg)
RCS (m²)

External: N2YO · Heavens-Above · Gunter

§ Orbital elements

Epoch: 2026-09-20T23:13:27.666048Z

Period
93.78 min
Inclination
97.7005°
Eccentricity
0.0008324
Mean motion
15.35436004 rev/d
Perigee alt
453.9 km
Apogee alt
465.3 km
Semi-major
6,837.8 km
B*
2.1030e-4
RAAN
77.6583°
Arg perigee
132.5330°
Mean anomaly
227.6617°
Rev number
21,003

§ Raw data

JILIN-1 GAOFEN 03D471 54692U 22167L   26263.96768132  .00007160  00000+0  21030-3 0  99972 54692  97.7005  77.6583 0008324 132.5330 227.6617 15.35436004210034

JSON: /api/v1/satellites/54692 · /tle

For live sub-satellite position, see the globe view (requires WebGL).

§ Visibility from observer

Set your observer location to see the next 7 days of passes ≥ 10°. The values pass through the URL so the page stays shareable.

No JS? Fill the form by hand. The geolocation button needs JavaScript.